Overview Statistics Trail Chart Weather Telemetry Raw packets
 

This is the latest recevied weather packets stored in our database for station/object FW0690. If no packets are shown the sender has not sent any weather packets the latest 10 day(s).

<< 90 91 92 93 94 95 96 >>
Time Temp. Humidity Pressure Rain* Wind** Luminosity Snow
1787760590 27.78° C 43% 1013.7 hPa - - 9 W/m² -
1787760230 28.33° C 42% 1013.6 hPa - - 11 W/m² -
1787759870 28.33° C 42% 1013.5 hPa - - 13 W/m² -
1787759510 28.33° C 42% 1013.5 hPa - - 14 W/m² -
1787759150 28.33° C 41% 1013.5 hPa - - 16 W/m² -
1787758790 28.33° C 41% 1013.4 hPa - - 18 W/m² -
1787758430 28.33° C 40% 1013.3 hPa - - 19 W/m² -
1787758070 28.33° C 40% 1013.3 hPa - - 18 W/m² -
1787757710 28.89° C 39% 1013.3 hPa - - 19 W/m² -
1787757350 28.89° C 38% 1013.4 hPa - - 20 W/m² -
1787756990 29.44° C 37% 1013.4 hPa - - 20 W/m² -
1787756630 29.44° C 36% 1013.5 hPa - - 23 W/m² -
1787756270 30° C 35% 1013.4 hPa - - 25 W/m² -
1787755910 30.56° C 34% 1013.4 hPa - - 28 W/m² -
1787755550 31.67° C 32% 1013.4 hPa - - 30 W/m² -
1787755190 32.78° C 31% 1013.4 hPa - - 34 W/m² -
1787754830 34.44° C 30% 1013.5 hPa - - 254 W/m² -
1787754470 34.44° C 30% 1013.5 hPa - - 254 W/m² -
1787754110 35° C 30% 1013.4 hPa - - 254 W/m² -
1787753750 34.44° C 31% 1013.4 hPa - - 254 W/m² -
1787753390 34.44° C 31% 1013.4 hPa - - 254 W/m² -
1787753030 33.89° C 31% 1013.4 hPa - - 254 W/m² -
1787752670 34.44° C 31% 1013.4 hPa - - 148 W/m² -
1787752310 34.44° C 31% 1013.4 hPa - - 221 W/m² -
1787751950 34.44° C 31% 1013.3 hPa - - 221 W/m² -

* Rain since midnight (hover to see other rain measurements)
** Current wind speed in m/s (hover to see current wind gust speed)